Location: St. Louis
(38.6270°N, 90.1994°W)
Time: 19:33:11
(UTC-06:00)

Altair - Pass Details

Date: 09 December 2021
Orbit: 1501 x 1683 km, 47.2° (Epoch: 26 January)

Event Time Altitude Azimuth Distance (km) Brightness Sun altitude
Rises 21:24:29 0° 298° (WNW) 4,662 10.6 -54.7°
Reaches altitude 10° 21:27:49 10° 290° (WNW) 3,665 9.9 -55.3°
Enters shadow 21:30:43 21° 278° (W) 2,896 9.2 -55.8°
